sat.trackr.live / text

‹ back to catalog

COSMOS 2517 (GEO-IK 2)

NORAD 41579 · 2016-034A

PAYLOAD ACTIVE UNKNOWN

§ Identity

Operator
Country
CIS
Launch date
2016-06-04
Launch site
PLMSC
Launch vehicle
Mass (kg)
RCS (m²)
3.09

External: N2YO · Heavens-Above · Gunter

§ Orbital elements

Epoch: 2026-05-25T04:27:21.134592Z

Period
103.90 min
Inclination
99.1884°
Eccentricity
0.0001108
Mean motion
13.85908151 rev/d
Perigee alt
942.2 km
Apogee alt
943.8 km
Semi-major
7,321.1 km
B*
4.5007e-5
RAAN
154.4073°
Arg perigee
87.1222°
Mean anomaly
273.0061°
Rev number
50,444

§ Raw data

COSMOS 2517 (GEO-IK 2)1 41579U 16034A   26145.18566128  .00000008  00000+0  45007-4 0  99922 41579  99.1884 154.4073 0001108  87.1222 273.0061 13.85908151504440

JSON: /api/v1/satellites/41579 · /tle

For live sub-satellite position, see the globe view (requires WebGL).

§ Visibility from observer

Set your observer location to see the next 7 days of passes ≥ 10°. The values pass through the URL so the page stays shareable.

No JS? Fill the form by hand. The geolocation button needs JavaScript.

§ Radio — SatNOGS DB

ModeDescriptionDownlinkUplink
BPSK S-band telemetry 2.232 GHz

1 transmitter · refreshed weekly from db.satnogs.org